Theta_e
308 301 313 309 294 295 290 293 300 300 301 303 304 303 302 303 300 300 329 335 339 340 346 348 348 346 348 349 349 349 350 350 348 351 350 349 347 346 345 344 346 346 344 344 343 341 339 341 342
300 307 312 302 289 285 285 295 297 300 303 301 303 303 302 303 311 320 322 320 337 342 347 348 345 348 348 348 348 348 349 349 349 349 348 349 347 346 345 343 345 345 342 342 342 340 337 339 340
300 310 301 295 286 283 283 290 293 295 297 299 299 302 303 307 315 300 305 320 339 340 347 347 344 348 348 348 348 348 348 348 348 348 346 347 347 346 345 345 344 344 342 341 340 338 338 336 339
303 302 297 291 286 289 287 293 288 292 296 295 294 295 303 300 301 301 304 317 336 341 344 345 345 348 348 348 347 348 347 347 347 347 347 346 346 345 344 345 345 344 342 338 340 338 337 335 336
299 293 286 285 286 290 294 288 288 289 291 291 292 294 294 300 301 302 303 307 320 337 343 345 343 347 348 347 348 347 347 347 346 346 346 345 345 345 346 344 344 343 343 340 339 337 335 336 336
291 291 281 280 283 288 288 287 290 287 289 289 289 289 294 301 300 300 303 306 309 324 342 344 338 339 344 346 346 346 346 346 346 346 346 346 346 345 345 343 343 343 342 340 339 337 337 337 335
289 284 280 281 283 286 287 287 287 286 287 289 290 290 300 303 300 300 304 306 309 312 330 341 343 341 332 339 341 342 344 344 344 345 343 342 342 342 341 341 341 341 340 339 338 338 337 335 334
290 285 282 282 282 284 285 286 288 287 286 291 292 288 292 298 298 301 302 307 306 310 312 323 337 339 344 344 333 336 339 340 341 340 337 335 335 337 337 334 337 339 339 338 337 336 335 334 333
291 280 278 281 283 284 286 284 288 289 287 288 291 291 295 296 298 297 298 300 304 306 309 317 317 321 339 342 339 330 333 335 335 335 331 331 340 339 336 331 333 336 337 336 335 335 334 331 330
284 278 279 284 285 283 284 284 285 285 284 285 287 291 293 295 295 294 295 296 299 302 306 311 312 318 321 339 340 339 341 342 342 341 339 340 339 339 336 329 328 332 332 333 333 333 330 326 327
284 279 283 283 285 286 285 284 286 284 283 285 285 288 291 293 293 294 295 296 298 302 307 309 311 315 320 328 337 338 340 340 341 340 338 338 337 336 335 334 332 332 324 328 329 330 328 325 323
280 284 284 285 286 286 284 287 284 285 286 289 288 290 291 291 292 294 295 296 297 299 302 307 312 314 323 327 333 337 336 337 337 339 338 337 335 334 333 331 331 330 329 327 328 329 327 324 321
282 283 286 287 287 286 286 284 284 285 288 290 290 291 290 291 293 295 296 297 298 299 301 304 308 314 316 319 322 328 334 335 337 337 337 336 335 333 332 331 330 328 328 328 327 327 325 323 319
284 284 284 286 286 286 284 284 285 285 288 288 288 289 291 291 293 295 296 296 297 299 302 304 307 309 315 316 320 322 331 335 337 337 336 335 334 332 331 330 328 327 327 327 327 325 324 322 319
285 281 282 283 285 284 286 282 281 287 287 286 288 290 291 292 293 293 296 296 298 299 302 304 304 308 311 311 313 320 326 335 335 335 336 335 333 332 331 329 328 327 327 326 325 323 322 320 317
279 280 277 283 284 285 284 278 284 287 286 287 289 289 290 291 293 295 296 296 298 299 299 303 304 304 309 308 310 316 318 323 332 336 336 335 333 332 330 329 328 327 326 325 323 322 320 319 316
275 271 275 279 284 283 282 279 284 288 287 286 287 286 286 287 289 291 293 295 297 297 298 300 304 305 306 308 309 309 313 316 321 333 335 334 333 331 330 328 328 325 324 324 323 320 320 317 314
272 271 277 276 281 282 280 279 283 286 286 285 284 284 284 285 286 289 291 292 294 296 297 298 300 304 305 308 308 309 310 317 320 331 334 334 332 331 329 329 328 324 323 321 320 320 320 319 316
277 276 275 278 282 279 279 280 282 284 283 282 282 281 282 283 286 288 289 291 292 294 295 296 298 301 306 304 305 307 306 312 319 327 329 332 333 330 328 327 326 324 322 321 321 319 316 315 314
276 275 272 278 281 281 279 278 280 281 280 280 280 280 281 282 284 286 287 289 291 292 293 294 297 300 304 306 306 308 309 312 322 324 327 327 328 328 328 326 324 324 323 321 320 319 315 315 312
274 271 272 276 280 279 276 273 278 281 280 280 281 281 281 281 282 283 285 287 291 292 293 293 295 300 303 305 307 306 310 309 316 319 325 325 325 326 325 324 325 323 323 320 320 320 318 312 312
269 280 279 277 272 264 277 265 275 276 277 278 280 280 280 281 282 283 284 287 290 293 294 293 294 300 303 305 306 306 305 305 310 317 322 323 325 324 325 324 322 324 323 321 319 320 319 319 312
276 281 278 275 267 273 269 269 271 274 273 275 278 278 279 281 281 282 284 287 292 294 293 293 294 299 301 305 306 306 305 304 311 314 317 321 327 327 326 325 325 325 324 323 321 319 317 318 316
281 276 272 270 264 261 265 267 269 271 273 275 277 278 279 280 281 282 285 288 292 295 295 294 293 296 299 304 308 306 304 303 307 311 315 319 324 325 327 326 326 325 324 323 322 321 318 318 317
275 265 261 262 261 263 262 268 270 274 277 276 276 277 279 280 280 282 284 286 291 293 295 299 295 295 304 305 307 307 308 305 305 311 315 318 321 322 324 325 325 324 324 324 324 322 320 318 317
270 266 261 258 261 264 265 264 271 277 279 278 277 278 279 279 281 282 284 286 288 291 292 294 297 297 299 300 301 302 304 307 309 310 312 316 316 317 319 323 323 323 324 324 324 322 320 318 317
271 266 275 266 262 261 262 266 273 278 277 276 275 277 276 278 280 281 283 286 288 289 290 291 293 294 295 296 298 299 299 302 304 306 307 308 309 309 307 311 308 307 308 310 317 317 316 316 316
272 275 265 264 260 258 261 257 264 272 273 274 273 273 275 277 279 280 282 284 287 288 289 290 291 292 293 294 295 296 296 297 299 300 301 301 301 302 302 302 303 301 301 302 303 302 302 302 300
269 267 268 268 270 266 264 265 273 274 274 273 273 274 275 276 278 279 281 283 285 286 287 288 289 290 290 291 292 293 293 294 294 295 295 295 295 296 295 295 295 295 296 297 296 295 296 295 294
273 270 273 268 268 271 270 268 277 278 276 275 274 275 276 277 277 278 280 281 283 284 285 286 287 287 288 289 289 290 291 291 292 292 292 293 292 293 295 293 292 292 291 292 292 291 291 291 291
Wind_Speed
9 6 2 4 5 3 4 8 1 2 2 2 3 2 3 1 3 3 7 9 12 10 13 15 17 19 17 17 17 17 17 18 18 19 19 19 19 18 16 14 14 13 14 14 13 15 13 14 13
5 4 3 3 5 3 6 3 6 5 2 9 2 2 2 4 5 6 12 26 13 7 14 17 16 18 17 17 17 17 17 18 18 17 17 18 20 18 16 16 14 13 14 14 14 14 12 11 13
4 3 4 4 3 6 6 2 3 7 8 4 4 2 2 3 5 7 16 21 8 3 8 12 19 19 18 18 17 17 17 17 17 18 18 17 18 18 16 15 15 14 16 14 13 13 13 7 13
3 4 4 4 7 7 5 2 5 6 1 7 4 6 2 2 1 9 16 17 15 6 5 7 12 22 22 19 18 17 17 17 17 18 18 17 17 17 17 14 15 15 15 15 14 14 14 11 13
4 3 4 2 5 5 2 2 3 2 2 4 6 6 6 4 1 9 16 15 14 12 5 4 10 14 19 22 19 18 18 18 18 17 18 19 19 18 17 16 16 17 17 16 14 17 14 13 13
4 3 3 4 5 4 1 4 2 3 2 7 4 6 6 3 13 14 13 14 13 14 7 4 8 11 15 18 20 20 18 18 18 18 18 18 16 18 17 17 15 16 16 15 16 16 17 13 15
5 4 4 3 3 3 1 7 2 3 4 3 3 5 4 4 8 15 10 9 11 11 13 4 6 11 11 14 16 19 19 17 18 17 17 16 14 15 15 14 16 17 17 15 14 15 14 16 15
4 3 2 2 3 3 3 6 4 3 5 7 3 5 6 6 18 12 12 7 8 8 8 12 8 7 11 12 15 15 15 16 15 14 13 13 14 13 11 12 15 16 16 18 15 14 12 13 13
2 4 1 2 3 3 4 6 4 2 5 5 5 5 7 20 15 15 14 13 11 8 7 5 5 11 10 14 11 12 16 15 15 14 15 13 10 12 14 11 13 15 15 17 16 15 13 11 11
5 3 3 2 1 2 5 3 4 5 4 9 12 11 7 6 11 15 15 14 13 12 8 5 7 5 8 9 13 10 11 12 12 12 13 10 11 11 11 10 12 14 15 15 15 13 12 10 7
3 3 1 2 2 1 4 5 4 3 12 8 9 10 13 12 14 13 14 11 12 11 7 7 6 6 5 8 7 5 6 6 8 13 13 12 9 9 8 6 7 9 11 8 10 10 8 9 7
3 1 2 4 1 4 5 4 6 14 11 8 9 11 12 18 13 13 13 14 13 11 12 8 6 5 5 3 7 7 8 8 9 11 14 10 8 10 9 7 9 8 7 9 9 6 9 9 8
2 3 4 7 12 10 8 15 10 15 16 14 13 14 14 13 14 12 11 12 12 12 10 9 6 4 4 6 3 9 9 9 11 10 13 11 10 10 9 9 9 8 8 8 8 8 8 8 8
3 5 10 7 6 6 5 7 2 7 3 7 6 10 11 12 14 12 11 13 12 12 11 7 5 5 3 6 6 7 11 13 11 11 12 15 11 10 11 10 9 9 9 8 8 9 9 8 8
2 5 6 2 3 6 3 9 8 9 8 8 9 11 12 12 12 13 13 15 14 12 11 10 9 7 3 2 5 6 10 9 11 11 17 18 15 14 14 11 10 9 9 11 8 8 7 7 6
4 2 6 2 5 5 4 13 5 10 5 15 23 19 15 15 16 16 13 14 14 12 11 12 10 10 6 1 1 7 5 11 12 12 12 20 19 18 15 12 11 10 9 9 9 9 8 8 8
8 6 9 11 5 3 3 19 5 16 22 21 14 9 13 13 14 14 15 14 13 13 12 12 11 11 12 6 3 5 12 8 10 14 11 18 20 19 15 13 12 13 10 9 9 8 9 8 7
9 7 9 15 6 10 19 25 21 17 13 8 8 13 13 15 16 16 15 14 13 13 14 12 12 11 11 5 2 4 8 10 8 8 11 15 14 17 15 12 12 12 10 9 8 10 9 7 7
5 8 17 19 16 8 10 22 22 15 5 10 11 11 14 16 17 15 15 14 13 13 12 13 12 12 6 5 3 1 6 11 9 7 5 10 14 17 16 10 13 11 11 13 13 8 10 7 6
5 13 12 12 3 20 12 25 16 6 7 7 11 15 16 18 20 20 18 16 14 14 13 14 13 11 8 6 4 2 4 11 9 4 2 4 4 5 4 10 11 11 9 10 12 11 5 6 8
5 6 6 15 24 8 7 7 2 1 2 11 14 12 13 14 19 20 21 18 16 14 13 13 12 12 7 7 5 4 3 11 9 6 5 4 8 10 10 7 2 6 8 8 11 12 13 8 8
6 5 13 18 6 4 6 7 4 4 5 13 18 20 19 19 17 17 20 19 17 16 12 12 12 12 7 5 6 7 7 10 11 6 6 6 11 11 12 12 14 16 11 12 9 9 9 7 9
11 18 14 5 3 3 6 1 6 4 8 19 21 19 18 18 18 19 19 19 19 16 11 10 11 10 6 5 5 6 6 3 13 5 10 10 5 9 13 14 14 13 10 10 10 11 12 9 7
8 9 3 4 4 3 4 4 6 2 7 20 17 21 20 21 19 18 18 17 15 10 8 8 9 7 4 5 5 10 9 7 10 9 8 9 4 4 9 10 11 11 11 11 11 14 14 13 11
10 7 6 8 7 6 3 2 9 3 12 16 22 19 20 18 18 18 17 15 14 12 12 7 4 3 1 3 4 5 8 12 11 14 6 8 4 3 5 8 9 8 10 10 10 11 11 13 13
3 5 4 4 5 9 4 5 5 3 16 16 16 16 18 17 16 16 16 14 12 11 12 12 10 8 7 5 3 2 4 1 4 4 5 4 2 1 0 8 6 4 8 10 11 9 10 11 10
5 5 3 3 2 2 4 8 3 7 16 16 17 19 19 18 17 16 15 13 11 10 10 10 9 7 7 5 3 2 4 1 0 4 5 1 1 3 5 5 8 7 6 6 2 1 3 6 7
6 2 5 3 6 8 6 5 6 19 28 23 22 20 19 19 17 15 13 14 10 10 9 9 8 7 6 5 4 1 2 1 1 1 2 3 4 6 5 5 6 7 7 8 6 5 5 7 5
5 4 2 1 3 4 7 6 4 12 18 19 18 18 16 16 15 15 15 13 9 10 9 9 7 6 6 5 4 4 5 2 5 4 2 4 10 7 7 7 8 8 7 8 9 6 7 8 8
5 6 4 2 5 3 4 6 2 12 13 14 15 16 15 14 15 14 13 11 12 11 10 10 8 7 6 6 4 5 4 6 6 5 4 9 9 7 6 8 10 8 11 9 8 10 8 10 10
Wind_Direction
336 318 326 45 79 71 238 248 190 216 230 123 292 276 251 257 194 223 351 10 336 172 176 172 168 174 171 168 166 163 165 164 166 161 159 160 159 159 158 155 149 151 149 147 156 140 130 121 127
334 334 50 85 102 149 249 239 217 216 289 319 319 313 251 277 355 21 360 334 298 230 174 173 170 168 171 170 168 168 171 171 171 170 169 162 162 164 161 161 158 158 154 157 154 154 140 136 137
317 30 84 106 138 202 223 241 9 315 318 329 338 338 4 319 22 2 328 327 312 265 210 187 167 170 171 172 171 172 173 173 173 171 177 172 166 165 164 163 164 166 156 151 152 144 141 145 120
22 15 38 125 211 247 213 35 349 332 68 32 338 285 45 101 68 348 338 355 351 323 267 211 211 172 172 175 175 177 177 176 176 175 175 174 174 171 167 167 179 166 150 148 155 145 145 145 133
37 58 79 164 249 270 268 20 311 341 347 4 354 306 291 154 251 354 360 359 360 324 272 245 233 202 181 174 176 181 181 180 178 179 177 176 181 175 165 160 157 153 157 152 166 157 153 154 141
51 97 108 219 235 254 44 353 332 359 307 313 15 309 260 154 16 354 356 353 354 350 296 238 224 233 197 187 177 180 185 183 183 184 182 175 163 166 164 164 159 152 142 147 144 156 154 154 139
108 105 214 200 238 297 7 329 37 313 302 315 343 271 277 286 2 352 341 343 350 360 346 282 236 238 229 198 190 183 183 187 186 187 184 170 168 172 171 167 157 156 146 147 151 150 159 152 146
94 81 148 243 187 255 4 348 308 309 294 314 176 247 284 286 340 341 339 332 339 352 359 358 314 260 239 218 204 187 186 184 190 187 184 170 168 167 174 166 163 156 156 154 149 153 152 156 145
93 70 234 255 171 298 337 1 314 314 274 302 250 242 292 311 321 331 333 329 334 338 348 339 6 335 269 231 219 211 188 188 182 185 179 172 178 175 177 176 170 165 158 161 154 157 155 153 144
67 109 226 215 227 270 297 297 306 307 289 263 283 272 262 298 319 321 321 317 319 315 322 334 333 320 333 267 232 213 208 197 197 186 182 180 177 180 185 181 174 164 155 162 155 158 155 153 166
346 186 170 266 253 23 273 283 219 235 265 233 257 273 299 303 306 299 296 291 294 297 299 304 301 311 318 321 236 217 207 199 199 191 179 178 173 174 180 183 177 177 174 171 170 169 176 168 174
336 278 209 272 241 318 282 263 261 220 253 247 242 275 289 294 291 288 291 296 297 294 296 291 289 296 308 333 303 230 218 199 197 199 187 178 176 177 176 184 182 178 180 171 167 174 173 175 180
182 258 281 284 288 268 255 249 248 261 256 265 272 277 272 273 280 278 274 280 286 287 280 283 280 297 315 317 331 310 222 217 199 197 194 184 185 182 177 180 184 182 176 178 174 177 172 178 177
256 281 290 289 280 266 275 261 160 251 230 272 264 269 273 269 270 282 287 285 283 281 280 266 249 284 304 347 319 315 289 203 199 188 189 190 187 186 184 180 183 186 182 177 177 177 177 180 181
288 333 292 239 231 286 258 273 232 272 292 289 296 308 296 290 287 275 277 278 277 274 272 268 268 270 296 53 342 293 312 224 194 193 191 185 185 190 186 183 181 184 185 176 169 174 175 181 190
22 55 351 238 313 271 83 277 332 302 325 312 320 312 324 322 305 294 276 270 271 271 272 268 264 269 259 117 17 309 317 306 258 212 197 192 186 184 185 182 186 178 176 182 182 180 187 194 196
12 283 309 321 218 288 220 291 273 295 295 297 306 344 332 332 336 344 333 306 288 280 278 270 255 242 248 240 74 291 307 287 310 227 208 202 193 182 185 183 183 171 174 183 185 186 191 194 202
299 323 285 298 275 284 286 276 284 290 285 300 13 347 333 326 325 323 320 315 311 303 289 274 264 240 226 217 112 296 307 295 308 247 228 197 198 188 183 184 175 172 171 181 181 185 194 201 199
263 268 279 288 296 294 275 295 294 319 39 49 13 340 329 324 320 317 317 314 310 303 307 287 262 250 231 249 170 188 296 289 302 289 265 191 194 187 184 178 168 174 179 184 183 178 190 198 176
250 284 283 289 262 318 308 296 309 106 79 48 5 352 336 326 325 323 321 317 312 299 293 291 271 245 219 199 230 171 297 302 282 292 268 160 188 142 226 160 165 175 186 185 183 181 172 191 175
265 238 275 292 326 299 330 313 191 355 137 2 353 338 329 321 320 321 318 315 312 299 290 288 288 242 217 217 187 219 302 299 280 308 273 190 181 164 163 146 128 173 192 200 184 191 189 182 190
315 227 305 304 340 293 59 285 252 327 322 347 340 341 334 327 323 315 315 312 311 302 286 274 279 244 199 218 204 191 175 279 291 249 288 261 190 203 180 184 194 195 195 179 184 196 208 197 190
249 310 314 297 172 297 324 322 269 11 339 340 334 333 328 324 320 319 315 313 305 300 280 273 272 245 205 185 185 207 194 201 280 267 265 265 202 202 198 189 196 194 193 195 176 192 200 208 204
305 321 12 60 81 23 232 80 279 349 322 325 335 327 327 324 322 318 314 317 309 315 298 269 252 237 206 190 186 230 201 175 282 287 266 261 202 204 180 181 185 182 186 186 187 191 192 201 205
25 15 346 359 0 245 181 329 252 176 341 336 331 328 324 322 321 321 318 325 326 347 350 333 242 236 158 159 230 219 239 187 222 260 246 246 201 198 183 183 190 200 207 203 206 208 206 203 202
25 106 124 291 313 296 17 233 301 197 347 336 324 321 324 323 321 320 320 330 328 349 0 0 19 33 30 36 357 360 290 288 224 291 269 254 200 94 243 199 188 217 229 215 219 207 207 209 211
303 34 211 243 189 360 274 296 315 311 335 341 339 337 333 330 329 326 327 337 333 350 3 1 9 15 11 0 331 332 283 347 231 252 286 317 118 105 75 93 105 88 76 45 11 181 213 186 198
125 246 9 6 321 303 291 288 264 337 347 343 342 338 333 328 332 332 336 343 334 346 354 3 5 360 351 344 331 258 286 306 117 144 199 150 91 62 62 97 100 103 105 104 83 72 45 83 48
0 3 11 150 251 289 306 286 252 338 349 330 330 328 328 330 335 338 343 335 332 354 360 357 357 356 351 0 346 323 39 6 64 70 75 89 71 62 63 68 73 66 64 71 85 73 91 91 84
164 197 194 221 303 251 263 283 229 349 344 328 329 328 333 336 340 344 337 338 354 356 359 358 354 359 358 354 10 23 27 49 73 78 74 63 77 67 88 88 84 84 77 62 82 85 70 80 77